SB KEPS @ AMSAT $ORB12362.N 2Line Orbital Elements 12362.AMSAT
HR AMSAT ORBITAL ELEMENTS FOR AMATEUR SATELLITES IN NASA FORMAT FROM WA5QGD FORT WORTH,TX December 27, 2012 BID: ORB12362.N
DECODE 2-LINE ELSETS WITH THE FOLLOWING KEY: 1 AAAAAU 00 0 0 BBBBB.BBBBBBBB .CCCCCCCC 00000-0 00000-0 0 DDDZ 2 AAAAA EEE.EEEE FFF.FFFF GGGGGGG HHH.HHHH III.IIII JJ.JJJJJJJJKKKKKZ KEY: A-CATALOGNUM B-EPOCHTIME C-DECAY D-ELSETNUM E-INCLINATION F-RAAN G-ECCENTRICITY H-ARGPERIGEE I-MNANOM J-MNMOTION K-ORBITNUM Z-CHECKSUM
TO ALL RADIO AMATEURS BT
AO-07 1 07530U 74089B 12362.76642523 -.00000053 00000-0 -64680-4 0 5671 2 07530 101.4182 352.5983 0011601 263.4877 156.0212 12.53593682744304 FO-29 1 24278U 96046B 12362.26725731 -.00000020 00000-0 18878-4 0 119 2 24278 098.5781 077.6468 0349664 249.4579 106.8721 13.52993942808067 SO-33 1 25509U 98061B 12362.27089854 .00000166 00000-0 22236-4 0 3987 2 25509 031.4323 320.8748 0351709 093.0555 042.7456 14.28942600740288 RS-22 1 27939U 03042A 12362.87868508 .00000407 00000-0 85533-4 0 308 2 27939 097.7981 193.6637 0013855 015.3542 344.8084 14.64270007494223 VO-52 1 28650U 05017B 12361.99886437 .00000670 00000-0 87088-4 0 3016 2 28650 097.5805 023.3836 0027072 125.5847 234.7885 14.83465068413552 HO-68 1 36122U 09072B 12362.72999661 -.00000044 00000-0 00000 0 0 1377 2 36122 100.3341 057.9380 0007647 029.4921 330.6625 13.16301009145853 UO-11 1 14781U 84021B 12361.86597364 .00000504 00000-0 72314-4 0 617 2 14781 097.9280 059.4489 0010260 125.8111 234.4056 14.80703739548435 AO-16 1 20439U 90005D 12361.86026545 .00000129 00000-0 63720-4 0 6385 2 20439 098.4549 300.0535 0009884 312.6438 080.7924 14.32124217197577 LO-19 1 20442U 90005G 12362.90181758 .00000095 00000-0 50851-4 0 5712 2 20442 098.4228 303.4132 0010742 298.8089 093.0197 14.32338693197919 AO-27 1 22825U 93061C 12362.85843458 .00000081 00000-0 48823-4 0 2774 2 22825 098.6007 302.8752 0009470 074.8265 318.9754 14.29520871 4156 IO-26 1 22826U 93061D 12361.91168226 .00000104 00000-0 57376-4 0 311 2 22826 098.5944 302.2649 0009997 071.3456 319.9672 14.29800114 4143 GO-32 1 25397U 98043D 12361.87794051 .00000133 00000-0 76963-4 0 9581 2 25397 098.3875 331.3562 0002269 075.1590 284.9831 14.23314588751431 NO-44 1 26931U 01043C 12362.44993528 .00000261 00000-0 13339-3 0 2216 2 26931 067.0525 342.2110 0004744 262.4239 097.6314 14.29874401586872 SO-50 1 27607U 02058C 12362.38446249 .00000549 00000-0 10440-3 0 9519 2 27607 064.5593 067.0789 0067116 208.7164 151.0220 14.72703313538415 CO-55 1 27844U 03031E 12362.91082986 .00000171 00000-0 98677-4 0 5423 2 27844 098.7033 008.4767 0010028 029.7045 036.6110 14.21136604492401 CO-57 1 27848U 03031J 12362.73575154 .00000138 00000-0 83776-4 0 4900 2 27848 098.7114 007.7288 0009979 036.0369 018.7541 14.20873178492310 AO-51 1 28375U 04025K 12361.55935669 .00000120 00000-0 48726-4 0 4480 2 28375 098.1751 318.1816 0082842 177.9281 182.2279 14.41048584446470 CP3 1 31129U 07012N 12362.49108337 .00000457 00000-0 11348-3 0 3502 2 31129 097.8849 358.9558 0099470 241.6552 117.4560 14.53402894302054 CO-65 1 32785U 08021C 12362.20063792 .00001028 00000-0 13118-3 0 5083 2 32785 097.7769 058.4711 0015563 147.4250 290.1666 14.83483843252376 PRISM 1 33493U 09002B 12362.72030598 .00001888 00000-0 22736-3 0 3870 2 33493 098.1936 148.3650 0018887 032.5735 327.6644 14.85024934212461 SOHLA-1 1 33496U 09002E 12362.21866492 .00000329 00000-0 62945-4 0 9262 2 33496 098.1199 112.8899 0007635 141.9860 283.6406 14.70150539210605 SO-67 1 35870U 09049F 12362.73748860 .00003277 00000-0 13197-3 0 6442 2 35870 097.2128 031.6382 0001787 156.3957 341.1407 15.25539284182102 TISAT-1 1 36799U 10035E 12362.73885888 .00001331 00000-0 17158-3 0 6600 2 36799 098.0483 080.4152 0013489 264.6415 095.3258 14.82693672133165 STUDSAT 1 36801U 10035G 12362.82250553 .00004326 00000-0 49561-3 0 5574 2 36801 098.0564 082.2783 0011621 247.6407 112.3571 14.86428877133263 FO-69 1 37227U 0 12362.24329800 .00000315 00000-0 52081-4 0 00230 2 37227 071.9716 245.8739 0017596 315.2521 044.7220 14.77321650003513 FO-70 1 37380U 0 12362.21401249 .00000293 00000-0 49342-4 0 00236 2 37380 071.9742 246.7439 0018298 312.8941 047.0686 14.77064981003588 ALMASAT-1 1 38078U 12006B 12362.75123692 .00023743 00000-0 62240-3 0 8618 2 38078 069.4793 236.3751 0726079 004.8906 355.8724 14.17348889 44893 XATCOBEO 1 38082U 12006F 12362.59000972 .00054613 00000-0 11991-2 0 8054 2 38082 069.4804 226.6522 0655090 359.5142 000.5261 14.35958946 45145 NOAA-10 1 16969U 86073A 12362.12044979 .00000043 00000-0 34920-4 0 1895 2 16969 098.5636 027.5611 0012527 034.8327 358.0643 14.27604730367397 NOAA-11 1 19531U 88089A 12362.19846836 .00000016 00000-0 30511-4 0 1815 2 19531 098.7234 083.2089 0011552 038.3298 014.0742 14.14997251251808 NOAA-12 1 21263U 91032A 12362.34955223 .00000042 00000-0 36265-4 0 6625 2 21263 098.7133 022.9685 0013960 004.0312 356.0980 14.25538552124073 MET-3/5 1 21655U 91056A 12362.18329134 .00000069 00000-0 14614-3 0 5827 2 21655 082.5553 015.8263 0013384 194.9141 165.1588 13.17042066 27296 MET-2/21 1 22782U 93055A 12362.52646771 .00000001 00000-0 -12699-4 0 6210 2 22782 082.5483 239.1067 0021656 332.9441 076.3164 13.83696622975900 OKEAN-4 1 23317U 94066A 12362.88767578 .00000722 00000-0 83150-4 0 949 2 23317 082.5390 210.0615 0023052 072.7752 287.5984 14.84173364983534 NOAA-14 1 23455U 94089A 12362.31118116 -.00000007 00000-0 19187-4 0 1434 2 23455 098.8162 083.2777 0010107 122.9265 237.2881 14.13887230928080 NOAA-15 1 25338U 98030A 12366.48486610 .00000133 00000-0 56748-4 0 5353 2 25338 098.7125 351.7365 0010317 256.7267 103.3272 14.25162561734131 RESURS 1 25394U 98043A 12362.87662505 .00000009 00000-0 21419-4 0 2689 2 25394 098.3422 341.1211 0002129 064.3727 326.9587 14.24314675751975 FENGYUN1 1 25730U 99025A 12362.06184822 .00001907 00000-0 11041-2 0 7711 2 25730 098.8648 317.8925 0020900 168.3565 256.3892 14.09971393701786 OKEAN-0 1 25860U 99039A 12361.94707804 .00000395 00000-0 67063-4 0 8254 2 25860 097.9671 320.9729 0001267 073.6867 318.6480 14.74432512722977 NOAA-16 1 26536U 00055A 12366.48724740 .00000166 00000-0 89343-4 0 148 2 26536 099.0714 051.3954 0010279 248.2926 111.7793 14.12823408 80902 NOAA-17 1 27453U 02032A 12366.46985964 .00000142 00000-0 61140-4 0 9552 2 27453 098.3263 023.3850 0011461 300.2053 059.8590 14.24525324350456 NOAA-18 1 28654U 05018A 12366.45401203 .00000270 00000-0 14790-3 0 4376 2 28654 099.0757 326.4687 0014464 321.8272 038.2343 14.11753060473986 NOAA-19 1 33591U 09005A 12366.43541024 .00000102 00000-0 56230-4 0 6222 2 33591 098.8839 303.9722 0013768 183.3528 176.8047 14.11437089473992 HUBBLE 1 20580U 90037B 12362.31132391 .00001284 00000-0 80486-4 0 1415 2 20580 028.4705 319.1453 0003000 311.6972 048.3361 15.03156628 43808 ISS 1 25544U 98067A 12363.10401242 .00005459 00000-0 97075-4 0 9129 2 25544 051.6479 238.2186 0016544 095.7958 057.4793 15.51777715808138 CO-58 1 28895U 05043F 12362.17985392 .00000450 00000-0 10079-3 0 3647 2 28895 097.8889 219.6976 0016670 264.5833 095.3474 14.60904750381835 FALCON 1 30776U 07006E 12362.55058163 .00003607 00000-0 22482-3 0 5165 2 30776 035.4298 174.3924 0002416 265.1589 156.5171 15.09194598319465 MAST 1 31126U 07012K 12362.56168963 .00000249 00000-0 65602-4 0 6435 2 31126 097.8733 002.3721 0092469 227.5598 131.7743 14.54391651302375 CAPE1 1 31130U 07012P 12362.47969768 .00000366 00000-0 93138-4 0 6549 2 31130 097.8856 358.6136 0100119 242.3539 116.7444 14.53247590301848 COMPASS 1 32787U 08021E 12362.20245811 .00001774 00000-0 21474-3 0 5014 2 32787 097.7771 059.1021 0016130 145.5340 247.7514 14.84820188252449 AAUSAT2 1 32788U 08021F 12362.88321319 .00001828 00000-0 21893-3 0 4932 2 32788 097.7776 060.2675 0015703 143.3045 336.5119 14.85219421252571 DO-64 1 32789U 08021G 12362.21391222 .00003106 00000-0 34962-3 0 5135 2 32789 097.7918 062.4657 0015185 140.8960 252.2941 14.87295407252551 CO-66 1 32791U 08021J 12362.21028653 .00001377 00000-0 17097-3 0 4905 2 32791 097.7777 058.6745 0016531 146.1556 251.1134 14.84087069252369 RS-30 1 32953U 08025A 12362.86335661 .00000010 00000-0 00000 0 0 4499 2 32953 082.4992 174.7090 0018062 245.6324 114.2872 12.43030491208629 PHARMSAT 1 35002U 09028B 12226.86484473 .07728342 73476-5 57159-3 0 789 2 35002 040.4341 050.6671 0012079 300.9773 059.0492 16.39309245183554 METEOR-M 1 35865U 09049A 12366.46585263 .00000045 00000-0 20285-4 0 672 2 35865 098.6301 056.8097 0002243 193.3198 166.8571 14.21877355186828 RS-38 1 35869U 09049E 12362.65729378 .00000020 00000-0 28564-4 0 547 2 35869 098.6244 053.0450 0004072 203.3480 156.7510 14.22106023170112 JUGNU 1 37839U 11058B 12362.79092521 .00000620 00000-0 19019-3 0 3001 2 37839 019.9578 265.3179 0018681 194.8543 165.1269 14.12115612 62644 SRMSAT 1 37841U 11058D 12361.83579839 .00000264 00000-0 00000 0 0 3000 2 37841 019.9697 279.7575 0012050 147.6205 212.4996 14.10190459 62411 RAX-2 1 37853U 11061D 12362.42321470 .00005559 00000-0 43146-3 0 3834 2 37853 101.7042 130.7904 0241069 159.3520 201.7624 14.81934597 62993 AUBIESAT 1 37854U 11061E 12362.25121090 .00006320 00000-0 47881-3 0 3817 2 37854 101.7076 131.0782 0242209 158.9228 202.2166 14.82492164 62971 HRBE 1 37855U 11061F 12362.89672876 .00005950 00000-0 45475-3 0 3782 2 37855 101.7087 131.8939 0242114 157.2726 203.9398 14.82253044 63064 RS-39 1 38051U 11062C 12362.89884397 .00009780 00000-0 36230-3 0 225 2 38051 051.6360 314.2687 0012845 015.2488 087.6441 15.28205384 51553 E-STAR 1 38079U 12006C 12362.82443454 .00043941 00000-0 98371-3 0 7523 2 38079 069.4813 228.3408 0677146 000.5150 359.6421 14.30905621 45111 GOLIAT 1 38085U 12006J 12362.06442101 .00043321 00000-0 97807-3 0 7204 2 38085 069.4822 231.1904 0683497 002.1162 358.2572 14.29384719 44970 HORYU-2 1 38340U 12025D 12362.24747567 .00000918 00000-0 15951-3 0 2966 2 38340 098.1956 302.6656 0013848 078.0330 282.2427 14.70496819 32844 RS-40 1 38736U 12041D 12362.29560778 .00000010 00000-0 00000 0 0 1456 2 38736 082.4780 262.3050 0019210 347.2165 012.8431 12.42649245 18891 PROITERES 1 38756U 12047B 12362.79151244 .00000409 00000-0 70265-4 0 3586 2 38756 098.2739 070.5670 0011572 295.4108 064.5891 14.74023185 16149 AENEAS 1 38760U 0 12359.48284668 .00003640 00000-0 33812-3 0 00242 2 38760 064.6739 089.2465 0216537 261.2495 096.3974 14.79896105003098 CSSWE-D 1 38761U 0 12359.41711196 .00003021 00000-0 28322-3 0 00217 2 38761 064.6739 089.4656 0218171 261.3429 096.2846 14.79725498003102 CXBN-E 1 38762U 0 12359.41141563 .00003488 00000-0 32340-3 0 00215 2 38762 064.6743 089.4492 0217899 261.0904 096.5412 14.79857891003179 OBJECT F 1 38763U 0 12359.34641318 .00002910 00000-0 27273-3 0 00219 2 38763 064.6732 089.6538 0218649 261.4015 096.2190 14.79750605003100 CINEMA-G 1 38764U 0 12359.41227137 .00003070 00000-0 28684-3 0 00201 2 38764 064.6726 089.4344 0218234 261.4111 096.2139 14.79795557003078 CP5 1 38765U 0 12359.54146210 .00003743 00000-0 34575-3 0 00201 2 38765 064.6740 088.9919 0217248 261.0239 096.6172 14.79949376003091 RAIKO 1 38852U 98067CN 12362.53677365 .00028768 00000-0 39040-3 0 915 2 38852 051.6473 239.2412 0017864 086.8661 273.4421 15.57218799 12985 FITSAT 1 1 38853U 98067CP 12362.89051014 .00035873 00000-0 46433-3 0 898 2 38853 051.6467 237.1147 0015667 105.7048 254.5673 15.58409142 13097 TechEdSat 1 38854U 98067CQ 12361.92719620 .00053489 00000-0 62445-3 0 980 2 38854 051.6451 241.1692 0015398 105.3498 254.9198 15.60943850 12959 F 1 1 38855U 98067CR 12362.12712913 .00051432 00000-0 60704-3 0 1019 2 38855 051.6448 240.2583 0015756 107.2941 252.9774 15.60669194 12872 WeWish 1 38856U 98067CS 12362.88956183 .00104741 00000-0 96563-3 0 1162 2 38856 051.6436 234.8406 0017162 112.3072 247.9747 15.66611068 13012 /EX
participants (1)
-
Ray Hoad